Location: Killam
(52.7910°N, 111.8608°W)
Time: 20:40:03
(UTC+00:00)

Vanguard 2 Rocket - Pass Details

Date: 25 February 2026
Orbit: 553 x 3286 km, 32.9° (Epoch: 8 March)

Event Time Altitude Azimuth Distance (km) Brightness Sun altitude
Rises 16:29:15 0° 206° (SSW) 6,721 11.5 16.1°
Reaches altitude 10° 16:34:43 10° 195° (SSW) 5,974 11.5 16.8°
Maximum altitude 16:48:42 26° 149° (SSE) 4,996 12.6 18.3°
Drops below altitude 10° 17:02:18 10° 103° (ESE) 5,852 12.1 19.7°
Sets 17:07:31 0° 92° (E) 6,568 11.9 20.2°
